Location: Marsån
(66.4167°N, 22.2833°E)
Time: 10:31:30
(UTC+00:00)

Cosmos 2034 Rocket - Pass Details

Date: 24 February 2024
Orbit: 957 x 1000 km, 82.9° (Epoch: 15 April)

Event Time Altitude Azimuth Distance (km) Brightness Sun altitude
Rises 18:17:16 0° 187° (S) 3,685 6.9 -17.8°
Reaches altitude 10° 18:19:46 10° 186° (S) 2,746 6.2 -18.1°
Maximum altitude 18:26:04 77° 102° (ESE) 1,028 3.9 -18.7°
Drops below altitude 10° 18:32:28 10° 18° (NNE) 2,784 6.4 -19.3°
Sets 18:35:00 0° 17° (NNE) 3,739 7.1 -19.5°
